ECMWFNIL_prec_cthk_132.txt.gz
RH
60 54 64 75 62 47 44 41 40 40 40 46 48 46 44 42 39 37 35 33 32 34 34 33 32 31 32 33 34 34 35 36 36 35 35 35 36 36 42 49 52 52
60 57 63 68 57 46 42 38 39 41 42 47 47 43 42 42 40 38 36 32 29 30 29 28 28 28 28 30 31 32 33 35 37 37 36 36 36 38 45 52 52 51
63 62 62 59 52 45 41 40 41 43 46 49 46 40 39 40 39 37 35 30 27 28 28 28 28 27 27 28 30 31 33 35 36 36 36 37 38 40 46 53 53 51
64 61 55 52 50 46 44 44 45 47 50 50 45 42 41 39 38 36 32 28 28 30 30 29 28 28 29 29 30 33 36 38 38 37 37 38 39 40 43 49 52 51
61 57 52 50 49 47 47 47 48 50 52 50 47 46 43 38 36 34 30 28 29 30 30 29 29 29 30 30 32 35 38 40 40 39 39 39 40 40 41 45 49 51
58 55 53 50 48 48 48 48 50 52 51 51 49 45 40 35 33 31 30 30 30 30 31 31 31 31 31 32 35 37 38 40 40 40 40 40 40 40 40 44 48 50
54 54 54 52 50 50 49 49 51 52 53 51 45 39 35 33 31 32 32 32 32 32 32 33 34 35 34 34 35 37 38 38 38 39 40 40 40 39 39 41 45 47
54 55 56 54 53 52 51 51 52 51 51 47 39 34 34 33 32 33 33 33 34 34 34 34 36 37 36 35 35 35 36 36 37 39 40 40 40 40 39 42 46 48
56 57 57 55 55 54 53 51 48 46 45 43 37 34 33 33 32 33 33 33 34 34 35 36 36 36 35 35 34 34 34 35 37 39 39 40 41 42 44 46 49 49
56 55 55 56 54 53 51 48 44 44 44 42 38 35 33 32 32 32 33 34 35 36 36 36 35 35 34 33 33 34 34 34 36 37 38 40 42 44 47 50 51 50
54 52 53 53 50 48 48 46 44 46 47 43 39 36 34 33 33 35 36 36 36 36 36 36 35 34 34 33 33 34 35 34 36 38 39 41 44 46 48 50 51 50
54 53 53 51 48 48 49 49 49 50 49 45 42 38 35 35 37 37 37 36 35 36 36 35 35 34 34 33 34 36 36 36 37 39 40 42 46 48 48 49 48 48
56 55 55 54 52 52 53 53 53 52 51 48 44 40 39 39 38 37 37 36 35 36 36 35 35 35 35 35 35 36 37 38 39 41 42 43 45 47 47 48 48 48
60 58 57 56 56 57 58 56 55 54 52 48 45 43 41 39 38 37 36 36 36 36 36 36 37 37 37 37 37 37 38 40 41 42 43 44 45 46 47 49 49 49
62 59 59 60 60 60 59 57 56 55 52 48 46 44 41 38 37 37 37 37 37 36 37 38 38 38 38 38 38 37 38 40 41 42 44 45 46 47 49 49 50 49
66 65 64 64 61 59 57 56 55 53 51 50 47 42 39 38 38 38 38 38 38 38 38 39 40 40 40 39 38 38 39 40 41 43 45 48 48 49 49 49 49 49
72 72 67 63 60 59 58 56 54 52 51 50 45 40 39 39 39 39 39 39 39 40 41 41 42 42 41 39 39 38 39 39 41 43 45 47 48 48 49 49 49 48
75 73 67 65 65 64 62 58 54 53 52 49 43 40 40 39 40 41 41 41 41 41 42 43 44 42 41 39 39 39 39 39 40 42 42 43 44 44 45 47 48 48
74 72 67 66 66 65 63 60 55 52 50 46 42 42 42 41 42 43 42 42 43 43 44 44 43 42 40 40 40 41 40 40 41 42 43 43 42 41 41 42 43 44
76 71 66 65 64 63 62 60 55 51 48 46 46 46 44 43 45 45 44 44 45 45 45 44 43 42 41 41 41 42 42 42 42 43 44 43 42 41 40 40 40 41
75 70 65 65 64 63 63 61 56 52 51 51 51 51 49 47 47 47 48 48 47 47 46 44 43 42 41 42 43 44 45 44 44 44 43 42 41 40 39 39 40 40
68 65 63 64 64 64 64 62 57 54 53 54 54 54 53 50 49 50 50 49 49 48 46 45 44 43 43 43 44 45 46 46 45 44 41 38 37 37 36 37 38 39
62 62 62 63 64 64 63 61 59 56 55 55 56 55 54 52 50 50 50 50 49 48 46 45 44 44 44 44 44 46 46 46 46 45 40 34 32 33 33 32 34 35
61 61 63 64 64 64 64 62 60 58 57 58 57 56 56 55 53 52 52 53 51 48 45 44 43 44 45 44 44 46 46 45 44 43 39 33 29 28 28 28 29 31
61 63 65 66 66 66 66 64 62 60 59 58 58 57 58 59 57 55 54 54 50 47 44 43 43 43 44 45 45 45 45 43 40 38 35 30 27 25 23 23 25 26
65 67 68 69 68 67 66 64 61 60 59 58 59 59 60 60 59 57 55 52 48 46 44 43 43 42 43 45 46 44 42 39 35 30 26 23 23 22 21 20 21 23

ECMWFNIL_prec_cthk_135.txt.gz
RH
58 59 62 64 63 62 63 60 53 49 48 46 44 41 41 40 37 34 32 30 30 30 31 30 30 31 32 32 32 32 33 35 36 37 38 39 39 39 39 39 39 39
59 60 61 63 65 64 63 58 50 45 45 44 43 43 44 41 37 34 31 29 30 32 34 32 30 31 32 32 31 31 32 34 36 38 39 40 40 40 39 39 40 40
61 63 63 64 64 61 59 55 46 42 42 42 42 44 45 41 37 35 31 29 30 31 32 30 31 32 33 32 31 31 33 34 36 39 40 40 40 40 39 39 40 40
62 66 68 66 62 58 57 52 44 41 40 40 41 43 43 40 38 36 32 31 31 31 31 32 33 33 32 32 32 32 33 34 36 39 40 40 40 39 39 39 39 40
63 68 70 66 61 58 54 48 43 40 38 38 39 40 40 38 37 35 32 32 32 32 34 35 34 32 32 33 35 34 34 36 37 38 38 38 37 37 37 38 37 37
64 68 68 65 63 58 51 45 43 41 39 39 38 38 38 36 36 35 32 32 34 35 37 36 33 32 33 35 36 34 34 35 36 36 36 35 34 34 34 35 35 35
64 66 66 66 63 56 49 46 45 42 40 40 39 39 38 36 36 35 35 39 40 37 35 34 34 34 35 36 35 34 35 35 35 35 34 34 35 35 34 34 36 38
62 63 64 62 58 52 50 50 47 43 40 39 40 40 39 38 37 38 41 43 40 35 34 34 35 34 34 35 35 34 34 35 35 34 34 36 38 38 38 39 41 43
60 61 60 58 54 53 53 52 49 44 39 38 39 39 40 42 42 44 43 39 36 35 35 35 34 34 34 35 34 33 34 34 35 36 37 40 41 41 41 41 43 43
62 61 58 55 53 54 55 54 51 46 41 39 38 39 43 46 46 44 39 36 35 36 35 34 33 34 34 34 34 33 34 35 37 39 41 42 42 41 40 40 42 42
62 60 57 53 50 52 54 53 50 46 42 40 39 42 46 46 44 40 37 36 36 35 34 34 33 34 35 34 33 33 36 39 41 42 43 43 41 40 38 39 41 41
61 58 55 50 47 47 49 49 47 45 43 43 45 48 48 45 42 39 37 35 35 35 34 34 33 34 36 35 35 36 39 42 43 44 43 42 40 38 38 39 41 42
58 57 55 51 47 44 45 47 48 46 46 49 53 52 49 45 41 37 36 35 35 35 35 35 36 37 37 38 37 37 40 43 44 44 44 42 40 39 40 40 42 44
59 59 58 53 49 46 47 50 51 51 54 57 57 53 49 44 40 37 37 36 36 36 37 37 38 39 40 40 38 38 40 43 44 44 44 43 42 41 42 42 43 44
61 62 60 57 54 54 54 55 55 57 60 61 58 53 48 43 40 39 38 38 38 38 39 40 40 41 41 41 39 39 40 41 41 42 42 43 43 42 43 44 44 44
63 63 63 63 64 63 61 58 58 60 62 61 56 51 45 41 41 41 40 39 39 40 41 42 42 43 42 42 40 39 39 39 38 39 40 40 41 40 41 43 44 45
65 65 66 66 66 65 63 60 60 62 62 59 52 46 43 42 42 41 41 40 41 42 44 44 44 44 43 43 42 40 39 38 36 37 38 38 39 39 39 40 42 44
67 68 69 67 65 66 66 64 65 66 63 57 50 45 44 44 43 42 42 42 43 44 44 44 45 45 44 43 42 41 40 38 37 37 37 38 38 39 39 39 40 42
69 71 71 70 69 71 71 70 69 67 63 58 52 48 45 44 44 44 43 44 44 45 45 46 46 46 45 45 44 42 41 39 38 38 38 38 38 38 39 39 40 41
71 74 75 75 74 74 73 71 68 64 59 57 54 49 46 45 45 45 44 45 45 46 46 46 46 47 47 46 45 44 42 40 39 38 36 36 36 36 36 37 38 39
76 77 77 77 77 76 73 70 68 64 60 57 54 50 46 45 45 45 45 46 47 47 47 46 47 49 50 49 47 45 43 40 37 35 34 33 34 34 34 35 35 36
81 80 77 74 74 75 72 69 68 65 61 57 54 52 48 46 45 45 45 47 48 48 48 48 50 52 52 51 49 47 45 40 34 30 31 31 31 31 31 30 30 31
77 78 74 71 72 73 70 68 67 64 60 57 55 53 51 48 46 46 47 48 49 50 50 50 52 54 54 52 49 47 46 42 35 29 28 28 27 26 25 25 26 28
70 73 72 70 70 70 69 67 66 62 60 58 57 55 52 49 48 48 50 50 50 51 51 52 54 55 53 50 48 45 42 39 33 27 24 24 23 22 22 23 26 29
66 69 70 68 67 67 66 65 63 60 59 60 59 55 52 51 50 50 52 52 52 52 54 55 56 55 51 47 45 42 38 34 28 23 21 20 20 20 21 23 26 28
65 67 68 67 65 65 64 63 62 61 62 61 59 56 53 52 52 52 52 52 53 55 57 58 56 52 48 46 44 42 38 30 23 19 19 18 18 18 20 22 25 27

ECMWFNIL_prec_cthk_138.txt.gz
RH
66 69 69 68 67 66 66 67 68 66 63 60 51 43 39 38 39 39 37 36 33 30 29 28 27 27 28 29 31 33 34 34 34 35 37 38 38 38 39 39 39 38
65 68 68 66 66 69 72 71 69 66 62 59 53 46 41 39 40 40 39 36 32 29 27 26 27 28 29 31 33 34 35 34 34 35 36 37 38 38 39 39 39 38
66 67 65 64 66 72 74 73 71 69 64 60 56 47 41 40 41 40 39 36 31 28 26 26 28 29 32 34 34 35 35 35 36 36 36 36 37 38 38 39 38 38
67 67 65 64 67 71 73 72 73 71 66 62 56 47 41 40 41 40 39 35 30 27 27 28 30 31 33 34 33 34 35 35 36 37 37 36 35 36 37 37 38 38
67 67 66 67 69 69 71 73 74 72 68 62 53 45 41 40 40 39 38 34 29 28 28 29 30 32 34 34 32 33 34 35 36 37 36 35 34 35 35 35 35 35
65 64 65 68 71 70 71 74 75 74 70 60 49 42 39 38 38 37 36 33 30 30 31 30 32 34 35 34 33 33 35 35 35 35 35 34 34 33 33 34 32 31
62 63 66 70 73 73 74 76 75 72 66 55 44 39 38 38 37 35 34 32 31 31 32 33 35 35 34 33 33 34 35 35 34 34 34 33 33 33 34 33 32 31
62 64 67 69 72 74 75 76 73 67 60 50 42 39 37 36 34 34 34 34 34 34 35 36 35 34 34 33 33 33 34 34 34 35 34 34 34 36 36 35 33 33
64 65 66 67 70 72 74 74 69 62 54 47 43 40 36 33 33 35 36 37 37 37 37 36 35 34 34 33 33 33 33 34 36 38 38 37 36 36 37 35 33 33
66 65 65 67 69 71 73 72 65 57 52 47 42 37 33 32 35 38 40 40 39 38 37 36 35 34 34 34 33 33 34 37 39 40 39 37 36 36 36 36 33 33
66 65 66 68 70 70 71 66 59 55 52 46 39 35 34 36 39 42 43 42 40 38 36 35 34 34 35 35 34 35 38 40 41 41 38 36 36 36 36 36 35 35
67 66 67 68 67 66 62 58 55 53 50 44 39 37 39 41 43 46 46 42 39 36 35 35 35 36 36 36 37 39 41 43 42 41 38 37 37 36 36 37 38 38
68 66 66 65 62 59 55 53 52 50 47 44 42 42 44 46 48 49 46 40 37 37 36 36 37 37 38 39 40 42 42 43 44 42 39 38 37 36 37 38 39 40
68 66 66 63 58 54 52 50 48 45 45 45 46 48 50 51 51 49 44 40 39 39 39 38 39 39 39 40 41 41 41 43 44 42 39 39 38 37 37 38 40 42
69 67 65 62 57 53 51 48 45 44 46 49 51 53 54 53 52 48 44 42 42 41 41 40 40 41 41 41 41 41 42 43 43 41 39 38 38 37 37 38 40 42
69 67 64 61 58 56 54 52 50 50 51 53 55 56 56 53 51 47 43 43 42 42 43 42 42 42 42 41 42 42 43 43 42 40 39 38 37 37 38 39 40 42
69 68 65 62 60 59 57 57 58 59 57 55 56 57 55 53 49 45 43 42 43 44 45 45 45 44 43 43 43 43 43 43 42 40 38 38 37 38 40 41 42 43
68 67 64 62 61 60 60 62 64 63 60 57 57 57 56 54 50 47 45 44 45 47 47 47 46 45 44 44 44 44 44 43 41 39 38 38 38 39 41 43 44 43
67 66 65 64 62 62 66 68 67 65 63 61 59 58 57 55 52 50 48 47 48 48 47 47 47 46 46 46 46 46 46 44 41 39 38 38 38 39 42 43 43 42
66 66 65 62 63 67 70 70 69 68 67 64 61 58 56 54 52 52 51 49 49 48 47 47 47 47 48 48 48 47 45 42 40 38 37 37 38 39 42 43 42 40
66 68 67 65 68 73 74 73 73 71 66 62 61 60 58 56 53 52 51 50 50 49 48 47 48 48 49 48 48 46 43 38 36 36 35 35 37 38 39 40 40 39
69 72 74 76 78 78 77 77 76 71 65 63 64 64 61 57 53 52 52 51 50 50 49 49 49 51 52 51 49 49 45 38 35 35 34 33 34 34 34 35 37 38
73 73 76 82 82 78 75 75 74 71 67 66 66 64 59 54 53 54 54 52 51 51 50 50 51 53 55 54 52 52 47 38 33 32 31 29 30 31 32 33 34 35
73 72 76 80 79 76 75 74 72 70 70 69 67 62 57 54 54 55 54 53 52 52 51 52 53 56 58 57 55 52 46 36 30 28 27 26 28 31 33 34 33 33
72 72 74 75 75 76 76 75 72 72 72 72 67 60 56 55 56 56 54 54 53 53 53 54 56 58 60 59 56 51 42 33 28 25 24 24 28 31 33 33 32 30
72 73 73 73 73 75 76 76 75 74 72 70 65 60 57 58 59 58 56 56 56 56 56 56 57 59 61 59 55 48 38 30 26 25 23 23 27 30 32 31 29 27

ECMWFNIL_prec_cthk_141.txt.gz
RH
75 74 74 73 71 68 67 67 71 74 76 76 74 69 65 64 62 54 45 40 36 32 28 26 25 26 26 27 27 27 29 32 33 34 33 33 34 36 39 39 39 39
75 74 73 73 71 69 69 71 74 74 75 76 73 70 67 64 62 54 44 39 36 31 28 26 26 26 26 27 28 30 32 33 34 34 33 34 35 36 37 38 38 38
77 75 73 73 72 71 71 74 76 74 75 77 75 71 67 64 64 56 45 40 37 32 29 27 27 26 26 28 30 32 34 35 35 33 32 33 34 35 35 35 35 35
77 74 73 74 75 73 72 74 75 74 77 80 77 71 66 65 64 57 47 41 37 33 30 28 27 27 28 30 32 34 36 36 35 33 32 33 32 34 34 34 34 33
76 72 72 74 73 72 72 73 74 75 79 80 76 70 65 65 64 56 48 42 37 34 31 29 29 30 31 32 33 35 37 36 34 32 32 32 32 33 33 33 32 31
75 72 72 72 70 69 70 73 75 78 81 80 75 69 66 65 64 57 48 43 38 35 31 30 31 33 33 34 35 37 38 35 33 32 32 32 32 32 32 32 32 32
75 73 73 72 70 69 71 74 77 79 81 81 75 69 66 64 62 55 47 42 38 34 32 32 35 36 36 36 37 38 37 35 33 32 32 33 32 32 33 33 33 34
76 75 74 72 72 72 74 77 79 79 81 80 75 70 67 62 58 52 45 41 37 34 34 35 38 38 37 37 37 36 35 34 34 33 33 34 33 33 34 34 35 35
77 75 73 72 74 77 78 79 79 80 81 78 75 73 68 59 53 49 43 39 36 35 37 38 39 39 37 37 36 35 35 35 35 36 36 36 35 34 34 34 35 35
74 72 71 71 74 77 78 79 80 81 80 76 76 73 64 54 49 45 40 36 36 38 39 40 40 38 36 36 35 36 37 37 38 39 38 37 36 36 35 34 35 35
71 70 70 70 72 74 76 78 79 80 79 78 75 68 59 52 47 41 37 37 39 41 41 41 39 37 36 37 37 38 40 40 40 40 39 38 38 37 36 35 35 34
71 69 69 69 72 74 76 77 79 80 80 77 71 64 57 49 43 39 38 40 43 44 43 40 38 38 38 38 39 40 42 41 41 40 39 39 39 38 37 36 35 34
70 71 69 69 71 75 77 77 79 79 77 73 66 60 53 44 39 41 42 44 46 46 43 40 39 40 41 41 41 42 43 43 42 41 40 40 40 38 37 36 36 35
70 74 73 72 72 75 76 76 75 74 71 67 60 54 48 43 44 46 48 49 49 46 43 42 42 43 43 43 43 44 45 45 43 42 41 41 40 37 36 36 36 37
72 77 76 74 72 72 72 71 70 68 66 61 54 50 48 49 51 52 53 53 50 47 45 44 44 45 45 44 44 46 47 46 45 43 43 43 41 37 36 35 37 39
73 77 76 73 70 69 69 68 65 64 61 55 51 51 54 56 56 56 56 55 50 46 45 44 45 45 45 44 46 47 47 46 45 44 44 43 40 37 36 36 38 40
70 76 75 72 70 70 70 68 65 62 57 53 53 57 59 58 58 58 57 54 51 48 46 45 46 46 45 45 47 46 46 46 46 45 44 43 39 36 37 39 41 42
68 73 74 73 72 72 71 68 64 59 55 55 60 62 61 58 59 59 58 55 53 51 49 47 47 46 46 47 47 46 46 46 46 45 44 42 38 37 39 41 42 42
68 72 73 74 73 72 70 66 62 59 59 62 65 64 62 61 62 60 58 56 54 53 51 49 48 48 48 48 48 47 47 46 46 46 44 40 38 37 39 40 41 41
72 73 74 74 73 70 68 66 64 66 68 67 65 64 65 65 63 61 59 58 56 54 52 51 49 49 49 49 48 46 44 43 44 44 41 38 36 37 39 40 41 40
73 74 73 71 70 69 68 67 69 71 70 68 67 67 67 66 64 62 61 59 57 56 54 52 50 49 49 48 46 43 40 38 40 40 37 35 35 36 38 40 41 40
73 73 71 68 68 68 67 68 71 72 70 69 71 71 70 67 64 62 61 59 59 58 56 52 50 49 49 46 43 41 40 38 38 37 34 32 32 34 37 40 41 40
73 72 69 69 69 70 71 72 73 72 72 74 75 73 69 65 62 63 63 61 60 59 56 52 50 50 50 48 45 43 41 39 37 35 31 29 29 31 35 37 37 37
73 71 70 71 72 74 78 80 79 77 78 79 77 72 67 64 64 66 65 63 61 60 56 54 52 52 52 52 50 46 42 39 36 32 29 28 30 33 35 35 34 33
72 72 73 71 71 76 81 81 78 77 76 75 73 69 66 66 69 69 67 64 62 60 58 56 55 53 54 55 53 48 42 38 34 30 27 29 32 34 34 33 31 29
75 78 78 74 75 81 82 79 76 75 72 71 70 70 69 70 72 70 65 63 62 61 60 59 56 54 56 57 55 47 40 35 32 28 28 29 32 32 32 30 28 26

ECMWFNIL_prec_cthk_144.txt.gz
RH
86 84 81 78 79 81 80 78 74 69 68 70 67 59 57 60 63 64 63 63 61 58 53 44 37 34 30 30 31 32 33 34 34 35 35 35 35 35 37 37 36 35
85 84 81 79 79 80 79 77 73 71 75 78 76 68 64 64 65 64 64 63 60 54 47 40 36 31 29 30 32 33 35 35 35 35 35 36 36 35 35 34 34 33
85 82 80 79 79 79 79 77 75 77 79 81 81 74 69 67 66 64 64 64 60 52 44 39 35 30 29 31 34 36 37 36 36 35 35 36 35 35 34 34 33 33
83 80 78 79 77 77 78 77 78 80 79 81 83 78 73 72 68 65 65 65 60 52 44 39 34 30 31 34 36 37 37 36 36 35 36 36 34 34 35 35 35 34
81 79 77 78 77 75 77 78 79 80 79 82 84 80 78 75 69 65 66 66 62 53 45 40 34 31 33 37 38 38 37 37 36 36 36 35 34 34 36 36 36 36
80 79 79 80 77 76 77 79 79 80 81 82 82 81 80 75 68 65 67 67 62 53 45 40 35 33 36 39 39 40 39 38 37 37 36 35 34 35 37 37 37 37
82 82 82 80 76 77 78 78 78 80 81 81 81 82 80 74 67 66 68 66 62 54 45 39 35 36 40 41 41 41 40 39 38 37 36 35 35 37 38 39 39 38
85 84 82 78 77 76 77 77 76 78 80 79 81 83 80 73 68 68 68 67 63 53 43 38 38 40 42 42 42 41 40 39 38 38 37 36 36 38 40 41 41 39
84 83 80 78 78 77 76 75 74 77 79 79 82 85 79 72 69 69 69 67 62 51 42 40 41 41 41 41 41 41 40 40 39 38 38 37 38 40 42 43 41 39
81 81 79 77 78 78 77 76 75 78 81 81 83 83 78 74 72 69 68 66 58 48 44 43 42 40 40 40 41 41 41 41 40 39 39 39 41 42 42 42 41 38
81 80 77 76 78 77 76 78 79 81 82 83 83 82 79 76 73 69 66 60 51 45 44 43 40 39 39 40 41 42 43 42 41 41 41 42 43 43 41 41 40 37
81 79 78 76 76 75 76 80 82 82 83 84 84 82 79 77 74 71 62 51 45 44 45 42 39 38 39 41 44 45 45 43 42 42 43 44 44 43 41 40 38 36
77 78 77 74 73 73 76 81 83 82 82 83 83 80 78 77 75 67 55 45 44 45 44 41 39 39 41 44 47 47 46 44 43 43 44 45 44 42 42 40 38 36
72 74 74 72 72 72 74 78 81 81 80 81 80 78 77 75 69 58 49 46 46 45 43 42 42 42 45 48 49 48 46 45 44 45 45 45 44 43 43 41 38 36
67 69 71 71 72 71 71 75 79 79 79 79 78 77 75 69 58 50 47 47 47 45 45 46 46 47 48 49 49 48 46 45 46 46 47 46 44 43 43 42 39 37
64 64 67 70 73 73 71 73 77 78 77 77 77 74 68 59 51 47 49 50 49 49 50 51 50 49 49 49 49 48 47 47 47 48 48 46 44 44 43 41 39 38
63 62 64 68 73 75 74 73 75 76 76 75 72 67 59 53 49 50 52 53 53 54 56 55 53 51 50 50 50 49 48 49 49 49 48 46 44 43 42 41 40 40
62 61 63 66 70 75 75 73 72 72 72 70 66 60 54 50 52 55 57 57 58 59 59 56 54 52 52 51 51 51 51 50 50 48 47 45 43 41 41 40 40 40
62 60 62 65 69 73 73 71 70 70 69 66 62 56 52 53 58 61 61 61 61 61 59 57 56 55 54 54 54 52 50 48 46 44 43 42 41 40 39 39 41 40
63 61 61 64 68 71 72 70 70 69 68 65 60 54 53 59 63 64 64 64 64 62 60 59 59 57 57 56 54 50 46 42 40 38 38 38 39 39 38 39 41 40
63 61 62 64 67 70 72 72 71 70 68 63 57 55 58 64 65 64 65 66 64 63 62 62 61 60 58 55 50 45 41 37 35 34 35 36 37 37 37 38 40 41
66 63 63 65 68 70 71 72 72 69 65 60 57 60 65 66 65 66 67 67 65 64 63 62 61 59 57 52 46 40 37 34 33 33 34 35 33 32 34 37 39 39
67 65 65 68 70 72 71 71 70 68 63 60 61 65 68 68 68 70 71 69 66 65 64 63 61 59 57 51 43 37 35 33 33 34 34 32 27 25 29 34 37 36
69 68 69 71 74 74 72 71 69 66 62 62 64 67 70 71 71 72 74 72 68 66 65 64 61 60 59 52 41 36 35 34 34 35 34 28 23 23 29 34 34 31
72 72 72 74 77 76 72 70 68 66 67 69 69 69 72 76 76 75 75 74 71 68 67 68 66 63 58 49 40 37 36 35 35 35 32 26 23 26 31 31 29 27
77 78 76 77 79 77 74 72 70 71 76 79 77 75 77 80 78 75 73 71 69 68 69 71 68 62 56 48 41 39 37 36 36 35 30 24 25 29 29 27 25 25